<?xml version="1.0" encoding="UTF-8" standalone="no" ?>
<gpx xmlns="http://www.topografix.com/GPX/1/1" xmlns:xsi="http://www.w3.org/2001/XMLSchema-instance" xsi:schemaLocation="http://www.topografix.com/GPX/1/1 http://www.topografix.com/GPX/1/1/gpx.xsd" version="1.1" creator="VisuGPX - https://www.visugpx.com">
  <metadata>
    <name>Les Ronzières ( Les Salles)  via le Gros Sapin </name>
    <desc><![CDATA[fait le 04 04 2023 départ d'un lieu privé - attention en pierrier a eviter ( tracé rouge) -des demi-tours ça ne passe pas! ]]></desc>
  </metadata>
  <wpt lat="45.87783" lon="3.76689">
    <ele>867.2</ele>
    <name><![CDATA[Virage à gauche]]></name>
  </wpt>
  <trk>
    <name><![CDATA[4km de pierrier a eviter.  ]]></name>
    <extensions>
      <line xmlns="http://www.topografix.com/GPX/gpx_style/0/2">
        <color>ff0019</color>
        <width>4</width>
      </line>
    </extensions>
    <trkseg>
      <trkpt lat="45.91423" lon="3.72892">
        <ele>1102</ele>
        <time>2023-04-05T16:19:42Z</time>
        <extensions>
          <visugpx:TrkExtension xmlns:visugpx="https://www.visugpx.com/editgpx/">
            <visugpx:node>3</visugpx:node>
            </visugpx:TrkExtension>
        </extensions>
      </trkpt>
      <trkpt lat="45.91415" lon="3.72894">
        <ele>1102</ele>
        <time>2023-04-05T16:19:49Z</time>
      </trkpt>
      <trkpt lat="45.91371" lon="3.72916">
        <ele>1103</ele>
        <time>2023-04-05T16:20:26Z</time>
      </trkpt>
      <trkpt lat="45.91344" lon="3.72923">
        <ele>1104</ele>
        <time>2023-04-05T16:20:48Z</time>
      </trkpt>
      <trkpt lat="45.91288" lon="3.72978">
        <ele>1111</ele>
        <time>2023-04-05T16:21:43Z</time>
      </trkpt>
      <trkpt lat="45.91245" lon="3.73013">
        <ele>1116</ele>
        <time>2023-04-05T16:22:22Z</time>
      </trkpt>
      <trkpt lat="45.91232" lon="3.73032">
        <ele>1117</ele>
        <time>2023-04-05T16:22:37Z</time>
      </trkpt>
      <trkpt lat="45.91189" lon="3.73123">
        <ele>1118</ele>
        <time>2023-04-05T16:23:38Z</time>
      </trkpt>
      <trkpt lat="45.91154" lon="3.73253">
        <ele>1120</ele>
        <time>2023-04-05T16:24:56Z</time>
      </trkpt>
      <trkpt lat="45.91096" lon="3.73329">
        <ele>1124</ele>
        <time>2023-04-05T16:25:59Z</time>
      </trkpt>
      <trkpt lat="45.91064" lon="3.73359">
        <ele>1122</ele>
        <time>2023-04-05T16:26:29Z</time>
      </trkpt>
      <trkpt lat="45.91051" lon="3.73379">
        <ele>1120</ele>
        <time>2023-04-05T16:26:45Z</time>
      </trkpt>
      <trkpt lat="45.91048" lon="3.73391">
        <ele>1119</ele>
        <time>2023-04-05T16:26:52Z</time>
      </trkpt>
      <trkpt lat="45.91049" lon="3.73457">
        <ele>1119</ele>
        <time>2023-04-05T16:27:28Z</time>
      </trkpt>
      <trkpt lat="45.91074" lon="3.73579">
        <ele>1126</ele>
        <time>2023-04-05T16:28:39Z</time>
      </trkpt>
      <trkpt lat="45.9108" lon="3.73636">
        <ele>1128</ele>
        <time>2023-04-05T16:29:11Z</time>
      </trkpt>
      <trkpt lat="45.91056" lon="3.73714">
        <ele>1132</ele>
        <time>2023-04-05T16:29:59Z</time>
      </trkpt>
      <trkpt lat="45.91046" lon="3.73766">
        <ele>1134</ele>
        <time>2023-04-05T16:30:29Z</time>
      </trkpt>
      <trkpt lat="45.91022" lon="3.73823">
        <ele>1135</ele>
        <time>2023-04-05T16:31:06Z</time>
      </trkpt>
      <trkpt lat="45.90926" lon="3.73961">
        <ele>1137</ele>
        <time>2023-04-05T16:32:55Z</time>
      </trkpt>
      <trkpt lat="45.90911" lon="3.73979">
        <ele>1137</ele>
        <time>2023-04-05T16:33:10Z</time>
      </trkpt>
      <trkpt lat="45.90846" lon="3.74034">
        <ele>1142</ele>
        <time>2023-04-05T16:34:11Z</time>
      </trkpt>
      <trkpt lat="45.9081" lon="3.74056">
        <ele>1144</ele>
        <time>2023-04-05T16:34:42Z</time>
      </trkpt>
      <trkpt lat="45.90719" lon="3.74086">
        <ele>1149</ele>
        <time>2023-04-05T16:35:57Z</time>
      </trkpt>
      <trkpt lat="45.9064" lon="3.74078">
        <ele>1155</ele>
        <time>2023-04-05T16:37:00Z</time>
      </trkpt>
      <trkpt lat="45.90611" lon="3.74083">
        <ele>1156</ele>
        <time>2023-04-05T16:37:24Z</time>
      </trkpt>
      <trkpt lat="45.90534" lon="3.74107">
        <ele>1158</ele>
        <time>2023-04-05T16:38:27Z</time>
      </trkpt>
      <trkpt lat="45.90524" lon="3.74106">
        <ele>1159</ele>
        <time>2023-04-05T16:38:35Z</time>
      </trkpt>
      <trkpt lat="45.90504" lon="3.74113">
        <ele>1160</ele>
        <time>2023-04-05T16:38:51Z</time>
      </trkpt>
      <trkpt lat="45.90449" lon="3.74148">
        <ele>1162</ele>
        <time>2023-04-05T16:39:40Z</time>
      </trkpt>
      <trkpt lat="45.904" lon="3.74194">
        <ele>1161</ele>
        <time>2023-04-05T16:40:26Z</time>
      </trkpt>
      <trkpt lat="45.90348" lon="3.7426">
        <ele>1159</ele>
        <time>2023-04-05T16:41:22Z</time>
      </trkpt>
      <trkpt lat="45.90325" lon="3.7429">
        <ele>1159</ele>
        <time>2023-04-05T16:41:47Z</time>
      </trkpt>
      <trkpt lat="45.90267" lon="3.74386">
        <ele>1148</ele>
        <time>2023-04-05T16:42:58Z</time>
      </trkpt>
      <trkpt lat="45.9021" lon="3.74456">
        <ele>1141</ele>
        <time>2023-04-05T16:43:58Z</time>
      </trkpt>
      <trkpt lat="45.90177" lon="3.74482">
        <ele>1140</ele>
        <time>2023-04-05T16:44:28Z</time>
      </trkpt>
      <trkpt lat="45.90141" lon="3.74503">
        <ele>1142</ele>
        <time>2023-04-05T16:44:59Z</time>
      </trkpt>
      <trkpt lat="45.90092" lon="3.7451">
        <ele>1145</ele>
        <time>2023-04-05T16:45:38Z</time>
      </trkpt>
      <trkpt lat="45.90064" lon="3.74502">
        <ele>1144</ele>
        <time>2023-04-05T16:46:01Z</time>
      </trkpt>
      <trkpt lat="45.90045" lon="3.74507">
        <ele>1142</ele>
        <time>2023-04-05T16:46:17Z</time>
      </trkpt>
      <trkpt lat="45.90027" lon="3.74519">
        <ele>1140</ele>
        <time>2023-04-05T16:46:33Z</time>
      </trkpt>
      <trkpt lat="45.89972" lon="3.74576">
        <ele>1134</ele>
        <time>2023-04-05T16:47:27Z</time>
      </trkpt>
      <trkpt lat="45.89931" lon="3.74612">
        <ele>1128</ele>
        <time>2023-04-05T16:48:05Z</time>
      </trkpt>
      <trkpt lat="45.8991" lon="3.74641">
        <ele>1126</ele>
        <time>2023-04-05T16:48:29Z</time>
      </trkpt>
      <trkpt lat="45.89888" lon="3.74689">
        <ele>1124</ele>
        <time>2023-04-05T16:49:01Z</time>
      </trkpt>
      <trkpt lat="45.89845" lon="3.74761">
        <ele>1119</ele>
        <time>2023-04-05T16:49:54Z</time>
      </trkpt>
      <trkpt lat="45.8982" lon="3.74782">
        <ele>1114</ele>
        <time>2023-04-05T16:50:17Z</time>
      </trkpt>
      <trkpt lat="45.89767" lon="3.74815">
        <ele>1108</ele>
        <time>2023-04-05T16:51:03Z</time>
      </trkpt>
      <trkpt lat="45.89736" lon="3.74847">
        <ele>1102</ele>
        <time>2023-04-05T16:51:34Z</time>
      </trkpt>
      <trkpt lat="45.89663" lon="3.74878">
        <ele>1085</ele>
        <time>2023-04-05T16:52:34Z</time>
      </trkpt>
      <trkpt lat="45.89642" lon="3.74906">
        <ele>1078</ele>
        <time>2023-04-05T16:52:57Z</time>
      </trkpt>
      <trkpt lat="45.89608" lon="3.74934">
        <ele>1067</ele>
        <time>2023-04-05T16:53:29Z</time>
      </trkpt>
      <trkpt lat="45.8959" lon="3.74944">
        <ele>1062</ele>
        <time>2023-04-05T16:53:44Z</time>
      </trkpt>
      <trkpt lat="45.89561" lon="3.74946">
        <ele>1056</ele>
        <time>2023-04-05T16:54:07Z</time>
      </trkpt>
      <trkpt lat="45.89546" lon="3.7496">
        <ele>1053</ele>
        <time>2023-04-05T16:54:22Z</time>
      </trkpt>
      <trkpt lat="45.89519" lon="3.74997">
        <ele>1051</ele>
        <time>2023-04-05T16:54:52Z</time>
      </trkpt>
      <trkpt lat="45.89493" lon="3.75016">
        <ele>1046</ele>
        <time>2023-04-05T16:55:15Z</time>
      </trkpt>
      <trkpt lat="45.89465" lon="3.75024">
        <ele>1041</ele>
        <time>2023-04-05T16:55:38Z</time>
      </trkpt>
      <trkpt lat="45.8942" lon="3.75045">
        <ele>1034</ele>
        <time>2023-04-05T16:56:16Z</time>
      </trkpt>
      <trkpt lat="45.89373" lon="3.75052">
        <ele>1027</ele>
        <time>2023-04-05T16:56:54Z</time>
      </trkpt>
      <trkpt lat="45.89324" lon="3.75052">
        <ele>1019</ele>
        <time>2023-04-05T16:57:33Z</time>
      </trkpt>
      <trkpt lat="45.89288" lon="3.7507">
        <ele>1013</ele>
        <time>2023-04-05T16:58:03Z</time>
      </trkpt>
      <trkpt lat="45.89217" lon="3.75086">
        <ele>1000</ele>
        <time>2023-04-05T16:59:01Z</time>
      </trkpt>
      <trkpt lat="45.89194" lon="3.75106">
        <ele>995</ele>
        <time>2023-04-05T16:59:22Z</time>
      </trkpt>
      <trkpt lat="45.89132" lon="3.75139">
        <ele>987</ele>
        <time>2023-04-05T17:00:15Z</time>
      </trkpt>
      <trkpt lat="45.89104" lon="3.75149">
        <ele>985</ele>
        <time>2023-04-05T17:00:38Z</time>
      </trkpt>
      <trkpt lat="45.89078" lon="3.75133">
        <ele>984</ele>
        <time>2023-04-05T17:01:01Z</time>
      </trkpt>
      <trkpt lat="45.8905" lon="3.7514">
        <ele>985</ele>
        <time>2023-04-05T17:01:24Z</time>
      </trkpt>
      <trkpt lat="45.8901" lon="3.75177">
        <ele>987</ele>
        <time>2023-04-05T17:02:02Z</time>
      </trkpt>
      <trkpt lat="45.88966" lon="3.75248">
        <ele>979</ele>
        <time>2023-04-05T17:02:55Z</time>
      </trkpt>
      <trkpt lat="45.88943" lon="3.75274">
        <ele>973</ele>
        <time>2023-04-05T17:03:18Z</time>
      </trkpt>
      <trkpt lat="45.88925" lon="3.75284">
        <ele>969</ele>
        <time>2023-04-05T17:03:34Z</time>
      </trkpt>
      <trkpt lat="45.88906" lon="3.75284">
        <ele>966</ele>
        <time>2023-04-05T17:03:49Z</time>
      </trkpt>
      <trkpt lat="45.8887" lon="3.7527">
        <ele>962</ele>
        <time>2023-04-05T17:04:19Z</time>
      </trkpt>
      <trkpt lat="45.88801" lon="3.7528">
        <ele>953</ele>
        <time>2023-04-05T17:05:14Z</time>
      </trkpt>
      <trkpt lat="45.8877" lon="3.75291">
        <ele>949</ele>
        <time>2023-04-05T17:05:40Z</time>
      </trkpt>
      <trkpt lat="45.88697" lon="3.75362">
        <ele>939</ele>
        <time>2023-04-05T17:06:51Z</time>
      </trkpt>
      <trkpt lat="45.88669" lon="3.754">
        <ele>937</ele>
        <time>2023-04-05T17:07:21Z</time>
      </trkpt>
    </trkseg>
  </trk>
  <trk>
    <name><![CDATA[Les Ronzières ( Les Salles)  via le Gros Sapin _2]]></name>
    <extensions>
      <line xmlns="http://www.topografix.com/GPX/gpx_style/0/2">
        <color>001eff</color>
        <width>4</width>
      </line>
    </extensions>
    <trkseg>
      <trkpt lat="45.88669" lon="3.754">
        <ele>937</ele>
        <time>2023-04-05T17:07:21Z</time>
      </trkpt>
      <trkpt lat="45.88644" lon="3.7542">
        <ele>936</ele>
        <time>2023-04-05T17:07:44Z</time>
      </trkpt>
      <trkpt lat="45.88615" lon="3.75425">
        <ele>936</ele>
        <time>2023-04-05T17:08:08Z</time>
      </trkpt>
      <trkpt lat="45.88587" lon="3.75435">
        <ele>935</ele>
        <time>2023-04-05T17:08:31Z</time>
      </trkpt>
      <trkpt lat="45.8855" lon="3.75434">
        <ele>935</ele>
        <time>2023-04-05T17:09:00Z</time>
      </trkpt>
      <trkpt lat="45.88523" lon="3.75444">
        <ele>934</ele>
        <time>2023-04-05T17:09:23Z</time>
      </trkpt>
      <trkpt lat="45.88486" lon="3.75431">
        <ele>934</ele>
        <time>2023-04-05T17:09:53Z</time>
      </trkpt>
      <trkpt lat="45.88459" lon="3.75436">
        <ele>935</ele>
        <time>2023-04-05T17:10:15Z</time>
      </trkpt>
      <trkpt lat="45.88414" lon="3.75457">
        <ele>935</ele>
        <time>2023-04-05T17:10:53Z</time>
      </trkpt>
      <trkpt lat="45.88358" lon="3.75469">
        <ele>944</ele>
        <time>2023-04-05T17:11:38Z</time>
      </trkpt>
      <trkpt lat="45.8833" lon="3.75471">
        <ele>948</ele>
        <time>2023-04-05T17:12:01Z</time>
      </trkpt>
      <trkpt lat="45.88312" lon="3.75485">
        <ele>949</ele>
        <time>2023-04-05T17:12:17Z</time>
      </trkpt>
      <trkpt lat="45.88238" lon="3.75506">
        <ele>950</ele>
        <time>2023-04-05T17:13:18Z</time>
      </trkpt>
      <trkpt lat="45.88192" lon="3.75534">
        <ele>949</ele>
        <time>2023-04-05T17:13:58Z</time>
      </trkpt>
      <trkpt lat="45.88161" lon="3.75569">
        <ele>947</ele>
        <time>2023-04-05T17:14:29Z</time>
      </trkpt>
      <trkpt lat="45.8811" lon="3.75685">
        <ele>939</ele>
        <time>2023-04-05T17:15:46Z</time>
      </trkpt>
      <trkpt lat="45.88097" lon="3.75705">
        <ele>939</ele>
        <time>2023-04-05T17:16:01Z</time>
      </trkpt>
      <trkpt lat="45.88073" lon="3.7578">
        <ele>934</ele>
        <time>2023-04-05T17:16:47Z</time>
      </trkpt>
      <trkpt lat="45.87999" lon="3.75888">
        <ele>923</ele>
        <time>2023-04-05T17:18:11Z</time>
      </trkpt>
      <trkpt lat="45.87983" lon="3.75936">
        <ele>919</ele>
        <time>2023-04-05T17:18:41Z</time>
      </trkpt>
      <trkpt lat="45.87981" lon="3.7595">
        <ele>919</ele>
        <time>2023-04-05T17:18:49Z</time>
      </trkpt>
      <trkpt lat="45.87985" lon="3.75989">
        <ele>918</ele>
        <time>2023-04-05T17:19:11Z</time>
      </trkpt>
      <trkpt lat="45.87979" lon="3.75994">
        <ele>919</ele>
        <time>2023-04-05T17:19:16Z</time>
      </trkpt>
      <trkpt lat="45.87952" lon="3.75998">
        <ele>922</ele>
        <time>2023-04-05T17:19:38Z</time>
      </trkpt>
      <trkpt lat="45.87904" lon="3.75985">
        <ele>925</ele>
        <time>2023-04-05T17:20:17Z</time>
      </trkpt>
      <trkpt lat="45.8779" lon="3.75994">
        <ele>931</ele>
        <time>2023-04-05T17:21:49Z</time>
      </trkpt>
      <trkpt lat="45.87783" lon="3.75988">
        <ele>930</ele>
        <time>2023-04-05T17:21:55Z</time>
      </trkpt>
      <trkpt lat="45.87757" lon="3.7599">
        <ele>930</ele>
        <time>2023-04-05T17:22:16Z</time>
      </trkpt>
      <trkpt lat="45.87701" lon="3.75976">
        <ele>929</ele>
        <time>2023-04-05T17:23:02Z</time>
      </trkpt>
      <trkpt lat="45.87699" lon="3.75957">
        <ele>928</ele>
        <time>2023-04-05T17:23:12Z</time>
      </trkpt>
      <trkpt lat="45.87693" lon="3.75947">
        <ele>928</ele>
        <time>2023-04-05T17:23:20Z</time>
      </trkpt>
      <trkpt lat="45.87685" lon="3.75943">
        <ele>928</ele>
        <time>2023-04-05T17:23:26Z</time>
      </trkpt>
      <trkpt lat="45.87649" lon="3.75948">
        <ele>929</ele>
        <time>2023-04-05T17:23:55Z</time>
      </trkpt>
      <trkpt lat="45.87622" lon="3.75939">
        <ele>929</ele>
        <time>2023-04-05T17:24:18Z</time>
      </trkpt>
      <trkpt lat="45.87584" lon="3.75937">
        <ele>929</ele>
        <time>2023-04-05T17:24:48Z</time>
      </trkpt>
      <trkpt lat="45.87576" lon="3.7597">
        <ele>930</ele>
        <time>2023-04-05T17:25:08Z</time>
      </trkpt>
      <trkpt lat="45.87581" lon="3.76054">
        <ele>933</ele>
        <time>2023-04-05T17:25:55Z</time>
      </trkpt>
      <trkpt lat="45.87569" lon="3.76094">
        <ele>932</ele>
        <time>2023-04-05T17:26:19Z</time>
      </trkpt>
      <trkpt lat="45.87561" lon="3.76102">
        <ele>932</ele>
        <time>2023-04-05T17:26:27Z</time>
      </trkpt>
      <trkpt lat="45.87544" lon="3.76107">
        <ele>931</ele>
        <time>2023-04-05T17:26:41Z</time>
      </trkpt>
      <trkpt lat="45.87497" lon="3.76095">
        <ele>928</ele>
        <time>2023-04-05T17:27:19Z</time>
      </trkpt>
      <trkpt lat="45.87477" lon="3.76096">
        <ele>927</ele>
        <time>2023-04-05T17:27:35Z</time>
      </trkpt>
      <trkpt lat="45.87453" lon="3.76118">
        <ele>927</ele>
        <time>2023-04-05T17:27:58Z</time>
      </trkpt>
      <trkpt lat="45.8744" lon="3.76157">
        <ele>926</ele>
        <time>2023-04-05T17:28:22Z</time>
      </trkpt>
      <trkpt lat="45.87427" lon="3.76247">
        <ele>925</ele>
        <time>2023-04-05T17:29:13Z</time>
      </trkpt>
      <trkpt lat="45.87407" lon="3.76313">
        <ele>920</ele>
        <time>2023-04-05T17:29:53Z</time>
      </trkpt>
      <trkpt lat="45.8739" lon="3.76345">
        <ele>918</ele>
        <time>2023-04-05T17:30:15Z</time>
      </trkpt>
      <trkpt lat="45.8732" lon="3.76422">
        <ele>911</ele>
        <time>2023-04-05T17:31:26Z</time>
      </trkpt>
      <trkpt lat="45.87308" lon="3.76459">
        <ele>900</ele>
        <time>2023-04-05T17:31:49Z</time>
      </trkpt>
      <trkpt lat="45.8729" lon="3.76492">
        <ele>892</ele>
        <time>2023-04-05T17:32:12Z</time>
      </trkpt>
      <trkpt lat="45.87291" lon="3.76542">
        <ele>883</ele>
        <time>2023-04-05T17:32:40Z</time>
      </trkpt>
      <trkpt lat="45.87308" lon="3.76589">
        <ele>873</ele>
        <time>2023-04-05T17:33:10Z</time>
      </trkpt>
      <trkpt lat="45.87328" lon="3.76614">
        <ele>866</ele>
        <time>2023-04-05T17:33:31Z</time>
      </trkpt>
      <trkpt lat="45.87329" lon="3.76627">
        <ele>864</ele>
        <time>2023-04-05T17:33:38Z</time>
      </trkpt>
      <trkpt lat="45.87338" lon="3.76649">
        <ele>859</ele>
        <time>2023-04-05T17:33:52Z</time>
      </trkpt>
      <trkpt lat="45.87359" lon="3.76644">
        <ele>856</ele>
        <time>2023-04-05T17:34:09Z</time>
      </trkpt>
      <trkpt lat="45.87384" lon="3.76656">
        <ele>850</ele>
        <time>2023-04-05T17:34:30Z</time>
      </trkpt>
      <trkpt lat="45.87381" lon="3.76707">
        <ele>843</ele>
        <time>2023-04-05T17:34:59Z</time>
      </trkpt>
      <trkpt lat="45.87357" lon="3.7678">
        <ele>837</ele>
        <time>2023-04-05T17:35:44Z</time>
      </trkpt>
      <trkpt lat="45.87335" lon="3.76807">
        <ele>836</ele>
        <time>2023-04-05T17:36:07Z</time>
      </trkpt>
      <trkpt lat="45.87323" lon="3.76831">
        <ele>832</ele>
        <time>2023-04-05T17:36:24Z</time>
      </trkpt>
      <trkpt lat="45.87315" lon="3.76833">
        <ele>831</ele>
        <time>2023-04-05T17:36:30Z</time>
      </trkpt>
      <trkpt lat="45.87249" lon="3.7679">
        <ele>837</ele>
        <time>2023-04-05T17:37:28Z</time>
      </trkpt>
      <trkpt lat="45.87212" lon="3.768">
        <ele>839</ele>
        <time>2023-04-05T17:37:58Z</time>
      </trkpt>
      <trkpt lat="45.87159" lon="3.76773">
        <ele>846</ele>
        <time>2023-04-05T17:38:43Z</time>
      </trkpt>
      <trkpt lat="45.8714" lon="3.7677">
        <ele>848</ele>
        <time>2023-04-05T17:38:59Z</time>
      </trkpt>
      <trkpt lat="45.87123" lon="3.76779">
        <ele>848</ele>
        <time>2023-04-05T17:39:13Z</time>
      </trkpt>
      <trkpt lat="45.87109" lon="3.76797">
        <ele>848</ele>
        <time>2023-04-05T17:39:28Z</time>
      </trkpt>
      <trkpt lat="45.87103" lon="3.76823">
        <ele>848</ele>
        <time>2023-04-05T17:39:43Z</time>
      </trkpt>
      <trkpt lat="45.87105" lon="3.76836">
        <ele>847</ele>
        <time>2023-04-05T17:39:51Z</time>
      </trkpt>
      <trkpt lat="45.87133" lon="3.76889">
        <ele>841</ele>
        <time>2023-04-05T17:40:28Z</time>
      </trkpt>
      <trkpt lat="45.87149" lon="3.76938">
        <ele>835</ele>
        <time>2023-04-05T17:40:58Z</time>
      </trkpt>
      <trkpt lat="45.87147" lon="3.76966">
        <ele>833</ele>
        <time>2023-04-05T17:41:14Z</time>
      </trkpt>
      <trkpt lat="45.87134" lon="3.77003">
        <ele>833</ele>
        <time>2023-04-05T17:41:37Z</time>
      </trkpt>
      <trkpt lat="45.87131" lon="3.7703">
        <ele>831</ele>
        <time>2023-04-05T17:41:52Z</time>
      </trkpt>
      <trkpt lat="45.8714" lon="3.77085">
        <ele>822</ele>
        <time>2023-04-05T17:42:24Z</time>
      </trkpt>
      <trkpt lat="45.8715" lon="3.7711">
        <ele>817</ele>
        <time>2023-04-05T17:42:40Z</time>
      </trkpt>
      <trkpt lat="45.87148" lon="3.77121">
        <ele>816</ele>
        <time>2023-04-05T17:42:46Z</time>
      </trkpt>
      <trkpt lat="45.87135" lon="3.7714">
        <ele>818</ele>
        <time>2023-04-05T17:43:01Z</time>
      </trkpt>
      <trkpt lat="45.87116" lon="3.77152">
        <ele>821</ele>
        <time>2023-04-05T17:43:18Z</time>
      </trkpt>
      <trkpt lat="45.87102" lon="3.77171">
        <ele>823</ele>
        <time>2023-04-05T17:43:33Z</time>
      </trkpt>
      <trkpt lat="45.87094" lon="3.77176">
        <ele>825</ele>
        <time>2023-04-05T17:43:40Z</time>
      </trkpt>
      <trkpt lat="45.87066" lon="3.77178">
        <ele>830</ele>
        <time>2023-04-05T17:44:02Z</time>
      </trkpt>
      <trkpt lat="45.8702" lon="3.77194">
        <ele>834</ele>
        <time>2023-04-05T17:44:40Z</time>
      </trkpt>
      <trkpt lat="45.86989" lon="3.77163">
        <ele>843</ele>
        <time>2023-04-05T17:45:11Z</time>
      </trkpt>
      <trkpt lat="45.86984" lon="3.77137">
        <ele>847</ele>
        <time>2023-04-05T17:45:26Z</time>
      </trkpt>
      <trkpt lat="45.86978" lon="3.77131">
        <ele>849</ele>
        <time>2023-04-05T17:45:31Z</time>
      </trkpt>
      <trkpt lat="45.86962" lon="3.77139">
        <ele>849</ele>
        <time>2023-04-05T17:45:45Z</time>
      </trkpt>
      <trkpt lat="45.86967" lon="3.77156">
        <ele>846</ele>
        <time>2023-04-05T17:45:55Z</time>
      </trkpt>
      <trkpt lat="45.86975" lon="3.77154">
        <ele>846</ele>
        <time>2023-04-05T17:46:02Z</time>
      </trkpt>
      <trkpt lat="45.86983" lon="3.77158">
        <ele>844</ele>
        <time>2023-04-05T17:46:09Z</time>
      </trkpt>
      <trkpt lat="45.86997" lon="3.77175">
        <ele>840</ele>
        <time>2023-04-05T17:46:23Z</time>
      </trkpt>
      <trkpt lat="45.87014" lon="3.77186">
        <ele>836</ele>
        <time>2023-04-05T17:46:38Z</time>
      </trkpt>
      <trkpt lat="45.87023" lon="3.77187">
        <ele>835</ele>
        <time>2023-04-05T17:46:45Z</time>
      </trkpt>
      <trkpt lat="45.87069" lon="3.77176">
        <ele>830</ele>
        <time>2023-04-05T17:47:23Z</time>
      </trkpt>
      <trkpt lat="45.87088" lon="3.77178">
        <ele>826</ele>
        <time>2023-04-05T17:47:38Z</time>
      </trkpt>
      <trkpt lat="45.87097" lon="3.77184">
        <ele>824</ele>
        <time>2023-04-05T17:47:46Z</time>
      </trkpt>
      <trkpt lat="45.8711" lon="3.77203">
        <ele>819</ele>
        <time>2023-04-05T17:48:01Z</time>
      </trkpt>
      <trkpt lat="45.8713" lon="3.77277">
        <ele>808</ele>
        <time>2023-04-05T17:48:45Z</time>
      </trkpt>
      <trkpt lat="45.87109" lon="3.77192">
        <ele>820</ele>
        <time>2023-04-05T17:49:35Z</time>
      </trkpt>
      <trkpt lat="45.87111" lon="3.77179">
        <ele>820</ele>
        <time>2023-04-05T17:49:43Z</time>
      </trkpt>
      <trkpt lat="45.87122" lon="3.77158">
        <ele>819</ele>
        <time>2023-04-05T17:49:57Z</time>
      </trkpt>
      <trkpt lat="45.87138" lon="3.7714">
        <ele>817</ele>
        <time>2023-04-05T17:50:14Z</time>
      </trkpt>
      <trkpt lat="45.87148" lon="3.77136">
        <ele>815</ele>
        <time>2023-04-05T17:50:22Z</time>
      </trkpt>
      <trkpt lat="45.87163" lon="3.77121">
        <ele>812</ele>
        <time>2023-04-05T17:50:37Z</time>
      </trkpt>
      <trkpt lat="45.87176" lon="3.77101">
        <ele>811</ele>
        <time>2023-04-05T17:50:52Z</time>
      </trkpt>
      <trkpt lat="45.87185" lon="3.77097">
        <ele>810</ele>
        <time>2023-04-05T17:50:59Z</time>
      </trkpt>
      <trkpt lat="45.87217" lon="3.77091">
        <ele>804</ele>
        <time>2023-04-05T17:51:25Z</time>
      </trkpt>
      <trkpt lat="45.87235" lon="3.77096">
        <ele>799</ele>
        <time>2023-04-05T17:51:40Z</time>
      </trkpt>
      <trkpt lat="45.87254" lon="3.77094">
        <ele>796</ele>
        <time>2023-04-05T17:51:55Z</time>
      </trkpt>
      <trkpt lat="45.87271" lon="3.77103">
        <ele>796</ele>
        <time>2023-04-05T17:52:10Z</time>
      </trkpt>
      <trkpt lat="45.87286" lon="3.77121">
        <ele>796</ele>
        <time>2023-04-05T17:52:25Z</time>
      </trkpt>
      <trkpt lat="45.87289" lon="3.77132">
        <ele>796</ele>
        <time>2023-04-05T17:52:32Z</time>
      </trkpt>
      <trkpt lat="45.87286" lon="3.77212">
        <ele>798</ele>
        <time>2023-04-05T17:53:17Z</time>
      </trkpt>
      <trkpt lat="45.87306" lon="3.7732">
        <ele>807</ele>
        <time>2023-04-05T17:54:19Z</time>
      </trkpt>
      <trkpt lat="45.87343" lon="3.77385">
        <ele>812</ele>
        <time>2023-04-05T17:55:06Z</time>
      </trkpt>
      <trkpt lat="45.87372" lon="3.77455">
        <ele>812</ele>
        <time>2023-04-05T17:55:51Z</time>
      </trkpt>
      <trkpt lat="45.87373" lon="3.77468">
        <ele>812</ele>
        <time>2023-04-05T17:55:58Z</time>
        <extensions>
          <visugpx:TrkExtension xmlns:visugpx="https://www.visugpx.com/editgpx/">
            <visugpx:node>1</visugpx:node>
            </visugpx:TrkExtension>
        </extensions>
      </trkpt>
      <trkpt lat="45.87372" lon="3.77518">
        <ele>810</ele>
        <time>2023-04-05T13:09:55Z</time>
        <extensions>
          <visugpx:TrkExtension xmlns:visugpx="https://www.visugpx.com/editgpx/">
            <visugpx:node>2</visugpx:node>
            </visugpx:TrkExtension>
        </extensions>
      </trkpt>
      <trkpt lat="45.87381" lon="3.77488">
        <ele>812</ele>
        <time>2023-04-05T13:10:13Z</time>
      </trkpt>
      <trkpt lat="45.8738" lon="3.77439">
        <ele>813</ele>
        <time>2023-04-05T13:10:41Z</time>
      </trkpt>
      <trkpt lat="45.87383" lon="3.77427">
        <ele>814</ele>
        <time>2023-04-05T13:10:48Z</time>
      </trkpt>
      <trkpt lat="45.87386" lon="3.77429">
        <ele>814</ele>
        <time>2023-04-05T13:10:50Z</time>
      </trkpt>
      <trkpt lat="45.87379" lon="3.77446">
        <ele>813</ele>
        <time>2023-04-05T13:11:01Z</time>
      </trkpt>
      <trkpt lat="45.87383" lon="3.77469">
        <ele>812</ele>
        <time>2023-04-05T13:11:15Z</time>
      </trkpt>
      <trkpt lat="45.87365" lon="3.7744">
        <ele>812</ele>
        <time>2023-04-05T13:11:36Z</time>
      </trkpt>
      <trkpt lat="45.87346" lon="3.77393">
        <ele>812</ele>
        <time>2023-04-05T13:12:06Z</time>
      </trkpt>
      <trkpt lat="45.87318" lon="3.77353">
        <ele>809</ele>
        <time>2023-04-05T13:12:38Z</time>
      </trkpt>
      <trkpt lat="45.87309" lon="3.77329">
        <ele>807</ele>
        <time>2023-04-05T13:12:53Z</time>
      </trkpt>
      <trkpt lat="45.87293" lon="3.77235">
        <ele>801</ele>
        <time>2023-04-05T13:13:47Z</time>
      </trkpt>
      <trkpt lat="45.87291" lon="3.77191">
        <ele>798</ele>
        <time>2023-04-05T13:14:12Z</time>
      </trkpt>
      <trkpt lat="45.87295" lon="3.77149">
        <ele>796</ele>
        <time>2023-04-05T13:14:35Z</time>
      </trkpt>
      <trkpt lat="45.87285" lon="3.77109">
        <ele>796</ele>
        <time>2023-04-05T13:14:59Z</time>
      </trkpt>
      <trkpt lat="45.87284" lon="3.77081">
        <ele>797</ele>
        <time>2023-04-05T13:15:15Z</time>
      </trkpt>
      <trkpt lat="45.87286" lon="3.77039">
        <ele>803</ele>
        <time>2023-04-05T13:15:38Z</time>
      </trkpt>
      <trkpt lat="45.87316" lon="3.76922">
        <ele>820</ele>
        <time>2023-04-05T13:16:48Z</time>
      </trkpt>
      <trkpt lat="45.87307" lon="3.76857">
        <ele>828</ele>
        <time>2023-04-05T13:17:25Z</time>
      </trkpt>
      <trkpt lat="45.8731" lon="3.7683">
        <ele>832</ele>
        <time>2023-04-05T13:17:40Z</time>
      </trkpt>
      <trkpt lat="45.8736" lon="3.76764">
        <ele>838</ele>
        <time>2023-04-05T13:18:34Z</time>
      </trkpt>
      <trkpt lat="45.87372" lon="3.76741">
        <ele>840</ele>
        <time>2023-04-05T13:18:50Z</time>
      </trkpt>
      <trkpt lat="45.87389" lon="3.76661">
        <ele>848</ele>
        <time>2023-04-05T13:19:37Z</time>
      </trkpt>
      <trkpt lat="45.8741" lon="3.76611">
        <ele>853</ele>
        <time>2023-04-05T13:20:10Z</time>
      </trkpt>
      <trkpt lat="45.87418" lon="3.76603">
        <ele>854</ele>
        <time>2023-04-05T13:20:17Z</time>
      </trkpt>
      <trkpt lat="45.8745" lon="3.76624">
        <ele>852</ele>
        <time>2023-04-05T13:20:45Z</time>
      </trkpt>
      <trkpt lat="45.87459" lon="3.76626">
        <ele>853</ele>
        <time>2023-04-05T13:20:53Z</time>
      </trkpt>
      <trkpt lat="45.87476" lon="3.76618">
        <ele>856</ele>
        <time>2023-04-05T13:21:07Z</time>
      </trkpt>
      <trkpt lat="45.87484" lon="3.7661">
        <ele>858</ele>
        <time>2023-04-05T13:21:15Z</time>
      </trkpt>
      <trkpt lat="45.87495" lon="3.76572">
        <ele>866</ele>
        <time>2023-04-05T13:21:38Z</time>
      </trkpt>
      <trkpt lat="45.8751" lon="3.76554">
        <ele>870</ele>
        <time>2023-04-05T13:21:53Z</time>
      </trkpt>
      <trkpt lat="45.87527" lon="3.76539">
        <ele>875</ele>
        <time>2023-04-05T13:22:09Z</time>
      </trkpt>
      <trkpt lat="45.87573" lon="3.76517">
        <ele>887</ele>
        <time>2023-04-05T13:22:48Z</time>
      </trkpt>
      <trkpt lat="45.87602" lon="3.76514">
        <ele>892</ele>
        <time>2023-04-05T13:23:12Z</time>
      </trkpt>
      <trkpt lat="45.8767" lon="3.76529">
        <ele>898</ele>
        <time>2023-04-05T13:24:07Z</time>
      </trkpt>
      <trkpt lat="45.8769" lon="3.76528">
        <ele>898</ele>
        <time>2023-04-05T13:24:23Z</time>
      </trkpt>
      <trkpt lat="45.87708" lon="3.76534">
        <ele>897</ele>
        <time>2023-04-05T13:24:37Z</time>
      </trkpt>
      <trkpt lat="45.8773" lon="3.7656">
        <ele>894</ele>
        <time>2023-04-05T13:25:00Z</time>
      </trkpt>
      <trkpt lat="45.87753" lon="3.76605">
        <ele>891</ele>
        <time>2023-04-05T13:25:31Z</time>
      </trkpt>
      <trkpt lat="45.87778" lon="3.76678">
        <ele>885</ele>
        <time>2023-04-05T13:26:17Z</time>
      </trkpt>
      <trkpt lat="45.87789" lon="3.76699">
        <ele>880</ele>
        <time>2023-04-05T13:26:31Z</time>
      </trkpt>
      <trkpt lat="45.87819" lon="3.76731">
        <ele>871</ele>
        <time>2023-04-05T13:27:01Z</time>
      </trkpt>
      <trkpt lat="45.87871" lon="3.76767">
        <ele>864</ele>
        <time>2023-04-05T13:27:48Z</time>
      </trkpt>
      <trkpt lat="45.87893" lon="3.76794">
        <ele>861</ele>
        <time>2023-04-05T13:28:11Z</time>
      </trkpt>
      <trkpt lat="45.87896" lon="3.7682">
        <ele>857</ele>
        <time>2023-04-05T13:28:25Z</time>
      </trkpt>
      <trkpt lat="45.87887" lon="3.76861">
        <ele>854</ele>
        <time>2023-04-05T13:28:49Z</time>
      </trkpt>
      <trkpt lat="45.87841" lon="3.76916">
        <ele>846</ele>
        <time>2023-04-05T13:29:37Z</time>
      </trkpt>
      <trkpt lat="45.87828" lon="3.76939">
        <ele>846</ele>
        <time>2023-04-05T13:29:54Z</time>
      </trkpt>
      <trkpt lat="45.87832" lon="3.76945">
        <ele>847</ele>
        <time>2023-04-05T13:29:58Z</time>
      </trkpt>
      <trkpt lat="45.87935" lon="3.76949">
        <ele>868</ele>
        <time>2023-04-05T13:31:21Z</time>
      </trkpt>
      <trkpt lat="45.87966" lon="3.76944">
        <ele>873</ele>
        <time>2023-04-05T13:31:46Z</time>
      </trkpt>
      <trkpt lat="45.87993" lon="3.76933">
        <ele>878</ele>
        <time>2023-04-05T13:32:08Z</time>
      </trkpt>
      <trkpt lat="45.88046" lon="3.76872">
        <ele>882</ele>
        <time>2023-04-05T13:33:03Z</time>
      </trkpt>
      <trkpt lat="45.88066" lon="3.7684">
        <ele>883</ele>
        <time>2023-04-05T13:33:27Z</time>
      </trkpt>
      <trkpt lat="45.88078" lon="3.76812">
        <ele>886</ele>
        <time>2023-04-05T13:33:45Z</time>
      </trkpt>
      <trkpt lat="45.88082" lon="3.76783">
        <ele>888</ele>
        <time>2023-04-05T13:34:02Z</time>
      </trkpt>
      <trkpt lat="45.88096" lon="3.76733">
        <ele>892</ele>
        <time>2023-04-05T13:34:32Z</time>
      </trkpt>
      <trkpt lat="45.88097" lon="3.76707">
        <ele>893</ele>
        <time>2023-04-05T13:34:46Z</time>
      </trkpt>
      <trkpt lat="45.88095" lon="3.7668">
        <ele>895</ele>
        <time>2023-04-05T13:35:01Z</time>
      </trkpt>
      <trkpt lat="45.88078" lon="3.76602">
        <ele>900</ele>
        <time>2023-04-05T13:35:47Z</time>
      </trkpt>
      <trkpt lat="45.88067" lon="3.76514">
        <ele>904</ele>
        <time>2023-04-05T13:36:37Z</time>
      </trkpt>
      <trkpt lat="45.88064" lon="3.76445">
        <ele>907</ele>
        <time>2023-04-05T13:37:15Z</time>
      </trkpt>
      <trkpt lat="45.88069" lon="3.76374">
        <ele>910</ele>
        <time>2023-04-05T13:37:55Z</time>
      </trkpt>
      <trkpt lat="45.88064" lon="3.76276">
        <ele>912</ele>
        <time>2023-04-05T13:38:50Z</time>
      </trkpt>
      <trkpt lat="45.88058" lon="3.76236">
        <ele>912</ele>
        <time>2023-04-05T13:39:13Z</time>
      </trkpt>
      <trkpt lat="45.8802" lon="3.76142">
        <ele>916</ele>
        <time>2023-04-05T13:40:13Z</time>
      </trkpt>
      <trkpt lat="45.88" lon="3.76049">
        <ele>917</ele>
        <time>2023-04-05T13:41:07Z</time>
      </trkpt>
      <trkpt lat="45.87988" lon="3.7598">
        <ele>918</ele>
        <time>2023-04-05T13:41:47Z</time>
      </trkpt>
      <trkpt lat="45.87992" lon="3.75912">
        <ele>920</ele>
        <time>2023-04-05T13:42:25Z</time>
      </trkpt>
      <trkpt lat="45.88021" lon="3.75859">
        <ele>925</ele>
        <time>2023-04-05T13:43:03Z</time>
      </trkpt>
      <trkpt lat="45.88052" lon="3.75824">
        <ele>928</ele>
        <time>2023-04-05T13:43:34Z</time>
      </trkpt>
      <trkpt lat="45.88071" lon="3.75793">
        <ele>932</ele>
        <time>2023-04-05T13:43:57Z</time>
      </trkpt>
      <trkpt lat="45.88083" lon="3.75756">
        <ele>937</ele>
        <time>2023-04-05T13:44:20Z</time>
      </trkpt>
      <trkpt lat="45.8813" lon="3.75668">
        <ele>938</ele>
        <time>2023-04-05T13:45:22Z</time>
      </trkpt>
      <trkpt lat="45.88162" lon="3.75581">
        <ele>945</ele>
        <time>2023-04-05T13:46:17Z</time>
      </trkpt>
      <trkpt lat="45.882" lon="3.75514">
        <ele>951</ele>
        <time>2023-04-05T13:47:05Z</time>
      </trkpt>
      <trkpt lat="45.88209" lon="3.75506">
        <ele>952</ele>
        <time>2023-04-05T13:47:13Z</time>
      </trkpt>
      <trkpt lat="45.88263" lon="3.75478">
        <ele>951</ele>
        <time>2023-04-05T13:47:59Z</time>
      </trkpt>
      <trkpt lat="45.88358" lon="3.75455">
        <ele>945</ele>
        <time>2023-04-05T13:49:16Z</time>
      </trkpt>
      <trkpt lat="45.88375" lon="3.75446">
        <ele>942</ele>
        <time>2023-04-05T13:49:31Z</time>
      </trkpt>
      <trkpt lat="45.88433" lon="3.75433">
        <ele>935</ele>
        <time>2023-04-05T13:50:18Z</time>
      </trkpt>
      <trkpt lat="45.8846" lon="3.75421">
        <ele>935</ele>
        <time>2023-04-05T13:50:41Z</time>
      </trkpt>
      <trkpt lat="45.88498" lon="3.7543">
        <ele>934</ele>
        <time>2023-04-05T13:51:11Z</time>
      </trkpt>
      <trkpt lat="45.88536" lon="3.75421">
        <ele>935</ele>
        <time>2023-04-05T13:51:42Z</time>
      </trkpt>
      <trkpt lat="45.88578" lon="3.75426">
        <ele>935</ele>
        <time>2023-04-05T13:52:16Z</time>
      </trkpt>
      <trkpt lat="45.88617" lon="3.75421">
        <ele>936</ele>
        <time>2023-04-05T13:52:47Z</time>
      </trkpt>
      <trkpt lat="45.88663" lon="3.75434">
        <ele>937</ele>
        <time>2023-04-05T13:53:25Z</time>
      </trkpt>
      <trkpt lat="45.88737" lon="3.75465">
        <ele>944</ele>
        <time>2023-04-05T13:54:27Z</time>
      </trkpt>
      <trkpt lat="45.88774" lon="3.75474">
        <ele>949</ele>
        <time>2023-04-05T13:54:57Z</time>
      </trkpt>
      <trkpt lat="45.88813" lon="3.75472">
        <ele>955</ele>
        <time>2023-04-05T13:55:28Z</time>
      </trkpt>
      <trkpt lat="45.88859" lon="3.7545">
        <ele>961</ele>
        <time>2023-04-05T13:56:07Z</time>
      </trkpt>
      <trkpt lat="45.88912" lon="3.75442">
        <ele>966</ele>
        <time>2023-04-05T13:56:49Z</time>
      </trkpt>
      <trkpt lat="45.88954" lon="3.75442">
        <ele>966</ele>
        <time>2023-04-05T13:57:23Z</time>
      </trkpt>
      <trkpt lat="45.88995" lon="3.75432">
        <ele>966</ele>
        <time>2023-04-05T13:57:56Z</time>
      </trkpt>
      <trkpt lat="45.89024" lon="3.7542">
        <ele>968</ele>
        <time>2023-04-05T13:58:20Z</time>
      </trkpt>
      <trkpt lat="45.89084" lon="3.75374">
        <ele>977</ele>
        <time>2023-04-05T13:59:15Z</time>
      </trkpt>
      <trkpt lat="45.89131" lon="3.75349">
        <ele>977</ele>
        <time>2023-04-05T13:59:55Z</time>
      </trkpt>
      <trkpt lat="45.89169" lon="3.75309">
        <ele>979</ele>
        <time>2023-04-05T14:00:33Z</time>
      </trkpt>
      <trkpt lat="45.89187" lon="3.753">
        <ele>983</ele>
        <time>2023-04-05T14:00:48Z</time>
      </trkpt>
      <trkpt lat="45.89225" lon="3.75308">
        <ele>989</ele>
        <time>2023-04-05T14:01:19Z</time>
      </trkpt>
      <trkpt lat="45.89296" lon="3.75352">
        <ele>995</ele>
        <time>2023-04-05T14:02:21Z</time>
      </trkpt>
      <trkpt lat="45.89383" lon="3.75392">
        <ele>998</ele>
        <time>2023-04-05T14:03:34Z</time>
      </trkpt>
      <trkpt lat="45.89434" lon="3.75395">
        <ele>1002</ele>
        <time>2023-04-05T14:04:15Z</time>
      </trkpt>
      <trkpt lat="45.89452" lon="3.75383">
        <ele>1004</ele>
        <time>2023-04-05T14:04:31Z</time>
      </trkpt>
      <trkpt lat="45.89492" lon="3.75345">
        <ele>1011</ele>
        <time>2023-04-05T14:05:09Z</time>
      </trkpt>
      <trkpt lat="45.8953" lon="3.75328">
        <ele>1011</ele>
        <time>2023-04-05T14:05:41Z</time>
      </trkpt>
      <trkpt lat="45.89558" lon="3.75309">
        <ele>1013</ele>
        <time>2023-04-05T14:06:06Z</time>
      </trkpt>
      <trkpt lat="45.89589" lon="3.75276">
        <ele>1017</ele>
        <time>2023-04-05T14:06:36Z</time>
      </trkpt>
      <trkpt lat="45.89638" lon="3.75248">
        <ele>1018</ele>
        <time>2023-04-05T14:07:19Z</time>
      </trkpt>
      <trkpt lat="45.8967" lon="3.75199">
        <ele>1027</ele>
        <time>2023-04-05T14:07:56Z</time>
      </trkpt>
      <trkpt lat="45.89695" lon="3.75179">
        <ele>1032</ele>
        <time>2023-04-05T14:08:19Z</time>
      </trkpt>
      <trkpt lat="45.89767" lon="3.75087">
        <ele>1056</ele>
        <time>2023-04-05T14:09:36Z</time>
      </trkpt>
      <trkpt lat="45.89799" lon="3.75057">
        <ele>1063</ele>
        <time>2023-04-05T14:10:07Z</time>
      </trkpt>
      <trkpt lat="45.89826" lon="3.75045">
        <ele>1065</ele>
        <time>2023-04-05T14:10:29Z</time>
      </trkpt>
      <trkpt lat="45.89874" lon="3.75031">
        <ele>1070</ele>
        <time>2023-04-05T14:11:09Z</time>
      </trkpt>
      <trkpt lat="45.89892" lon="3.75022">
        <ele>1073</ele>
        <time>2023-04-05T14:11:24Z</time>
      </trkpt>
      <trkpt lat="45.89914" lon="3.75018">
        <ele>1075</ele>
        <time>2023-04-05T14:11:42Z</time>
      </trkpt>
      <trkpt lat="45.90115" lon="3.75044">
        <ele>1080</ele>
        <time>2023-04-05T14:14:23Z</time>
      </trkpt>
      <trkpt lat="45.90243" lon="3.75046">
        <ele>1072</ele>
        <time>2023-04-05T14:16:06Z</time>
      </trkpt>
      <trkpt lat="45.90271" lon="3.75043">
        <ele>1070</ele>
        <time>2023-04-05T14:16:28Z</time>
      </trkpt>
      <trkpt lat="45.90298" lon="3.75027">
        <ele>1070</ele>
        <time>2023-04-05T14:16:52Z</time>
      </trkpt>
      <trkpt lat="45.90323" lon="3.75006">
        <ele>1070</ele>
        <time>2023-04-05T14:17:15Z</time>
      </trkpt>
      <trkpt lat="45.90352" lon="3.74973">
        <ele>1068</ele>
        <time>2023-04-05T14:17:44Z</time>
      </trkpt>
      <trkpt lat="45.90367" lon="3.74938">
        <ele>1068</ele>
        <time>2023-04-05T14:18:07Z</time>
      </trkpt>
      <trkpt lat="45.90412" lon="3.74799">
        <ele>1062</ele>
        <time>2023-04-05T14:19:33Z</time>
      </trkpt>
      <trkpt lat="45.90465" lon="3.747">
        <ele>1061</ele>
        <time>2023-04-05T14:20:42Z</time>
      </trkpt>
      <trkpt lat="45.90498" lon="3.7467">
        <ele>1062</ele>
        <time>2023-04-05T14:21:14Z</time>
      </trkpt>
      <trkpt lat="45.90566" lon="3.74595">
        <ele>1065</ele>
        <time>2023-04-05T14:22:22Z</time>
      </trkpt>
      <trkpt lat="45.9059" lon="3.74575">
        <ele>1066</ele>
        <time>2023-04-05T14:22:44Z</time>
      </trkpt>
      <trkpt lat="45.9061" lon="3.74547">
        <ele>1068</ele>
        <time>2023-04-05T14:23:07Z</time>
      </trkpt>
      <trkpt lat="45.90627" lon="3.74511">
        <ele>1073</ele>
        <time>2023-04-05T14:23:31Z</time>
      </trkpt>
      <trkpt lat="45.90657" lon="3.74473">
        <ele>1077</ele>
        <time>2023-04-05T14:24:03Z</time>
      </trkpt>
      <trkpt lat="45.90682" lon="3.74455">
        <ele>1078</ele>
        <time>2023-04-05T14:24:25Z</time>
      </trkpt>
      <trkpt lat="45.90723" lon="3.7445">
        <ele>1076</ele>
        <time>2023-04-05T14:24:58Z</time>
      </trkpt>
      <trkpt lat="45.90796" lon="3.74453">
        <ele>1073</ele>
        <time>2023-04-05T14:25:57Z</time>
      </trkpt>
      <trkpt lat="45.90864" lon="3.74441">
        <ele>1071</ele>
        <time>2023-04-05T14:26:52Z</time>
      </trkpt>
      <trkpt lat="45.90903" lon="3.74429">
        <ele>1069</ele>
        <time>2023-04-05T14:27:24Z</time>
      </trkpt>
      <trkpt lat="45.90958" lon="3.74405">
        <ele>1064</ele>
        <time>2023-04-05T14:28:10Z</time>
      </trkpt>
      <trkpt lat="45.91006" lon="3.74369">
        <ele>1059</ele>
        <time>2023-04-05T14:28:53Z</time>
      </trkpt>
      <trkpt lat="45.91042" lon="3.74319">
        <ele>1056</ele>
        <time>2023-04-05T14:29:33Z</time>
      </trkpt>
      <trkpt lat="45.91076" lon="3.74252">
        <ele>1053</ele>
        <time>2023-04-05T14:30:19Z</time>
      </trkpt>
      <trkpt lat="45.91134" lon="3.7418">
        <ele>1048</ele>
        <time>2023-04-05T14:31:21Z</time>
      </trkpt>
      <trkpt lat="45.91151" lon="3.74166">
        <ele>1045</ele>
        <time>2023-04-05T14:31:36Z</time>
      </trkpt>
      <trkpt lat="45.9119" lon="3.74145">
        <ele>1043</ele>
        <time>2023-04-05T14:32:10Z</time>
      </trkpt>
      <trkpt lat="45.91209" lon="3.74139">
        <ele>1042</ele>
        <time>2023-04-05T14:32:25Z</time>
      </trkpt>
      <trkpt lat="45.91239" lon="3.74139">
        <ele>1039</ele>
        <time>2023-04-05T14:32:49Z</time>
      </trkpt>
      <trkpt lat="45.91257" lon="3.74151">
        <ele>1037</ele>
        <time>2023-04-05T14:33:05Z</time>
      </trkpt>
      <trkpt lat="45.91306" lon="3.74199">
        <ele>1035</ele>
        <time>2023-04-05T14:33:53Z</time>
      </trkpt>
      <trkpt lat="45.91359" lon="3.74243">
        <ele>1028</ele>
        <time>2023-04-05T14:34:42Z</time>
      </trkpt>
      <trkpt lat="45.91444" lon="3.74281">
        <ele>1017</ele>
        <time>2023-04-05T14:35:53Z</time>
      </trkpt>
      <trkpt lat="45.91463" lon="3.74279">
        <ele>1016</ele>
        <time>2023-04-05T14:36:08Z</time>
      </trkpt>
      <trkpt lat="45.91501" lon="3.74266">
        <ele>1013</ele>
        <time>2023-04-05T14:36:39Z</time>
      </trkpt>
      <trkpt lat="45.91535" lon="3.7424">
        <ele>1011</ele>
        <time>2023-04-05T14:37:10Z</time>
      </trkpt>
      <trkpt lat="45.91544" lon="3.74237">
        <ele>1010</ele>
        <time>2023-04-05T14:37:18Z</time>
      </trkpt>
      <trkpt lat="45.91584" lon="3.74233">
        <ele>1005</ele>
        <time>2023-04-05T14:37:50Z</time>
      </trkpt>
      <trkpt lat="45.91613" lon="3.74223">
        <ele>1001</ele>
        <time>2023-04-05T14:38:14Z</time>
      </trkpt>
      <trkpt lat="45.91641" lon="3.74222">
        <ele>998</ele>
        <time>2023-04-05T14:38:36Z</time>
      </trkpt>
      <trkpt lat="45.91685" lon="3.74193">
        <ele>994</ele>
        <time>2023-04-05T14:39:15Z</time>
      </trkpt>
      <trkpt lat="45.91701" lon="3.74176">
        <ele>993</ele>
        <time>2023-04-05T14:39:31Z</time>
      </trkpt>
      <trkpt lat="45.9172" lon="3.74146">
        <ele>992</ele>
        <time>2023-04-05T14:39:53Z</time>
      </trkpt>
      <trkpt lat="45.91749" lon="3.74093">
        <ele>988</ele>
        <time>2023-04-05T14:40:31Z</time>
      </trkpt>
      <trkpt lat="45.91763" lon="3.74012">
        <ele>990</ele>
        <time>2023-04-05T14:41:17Z</time>
      </trkpt>
      <trkpt lat="45.91769" lon="3.74003">
        <ele>990</ele>
        <time>2023-04-05T14:41:24Z</time>
      </trkpt>
      <trkpt lat="45.91776" lon="3.73995">
        <ele>991</ele>
        <time>2023-04-05T14:41:32Z</time>
      </trkpt>
      <trkpt lat="45.91813" lon="3.7399">
        <ele>991</ele>
        <time>2023-04-05T14:42:01Z</time>
      </trkpt>
      <trkpt lat="45.9185" lon="3.73976">
        <ele>993</ele>
        <time>2023-04-05T14:42:32Z</time>
      </trkpt>
      <trkpt lat="45.9186" lon="3.73968">
        <ele>995</ele>
        <time>2023-04-05T14:42:41Z</time>
      </trkpt>
      <trkpt lat="45.91894" lon="3.73936">
        <ele>1002</ele>
        <time>2023-04-05T14:43:14Z</time>
      </trkpt>
      <trkpt lat="45.91938" lon="3.73861">
        <ele>1014</ele>
        <time>2023-04-05T14:44:08Z</time>
      </trkpt>
      <trkpt lat="45.91955" lon="3.73847">
        <ele>1014</ele>
        <time>2023-04-05T14:44:24Z</time>
      </trkpt>
      <trkpt lat="45.91976" lon="3.7382">
        <ele>1016</ele>
        <time>2023-04-05T14:44:47Z</time>
      </trkpt>
      <trkpt lat="45.91995" lon="3.73816">
        <ele>1015</ele>
        <time>2023-04-05T14:45:02Z</time>
      </trkpt>
      <trkpt lat="45.92122" lon="3.73885">
        <ele>991</ele>
        <time>2023-04-05T14:46:51Z</time>
      </trkpt>
      <trkpt lat="45.92151" lon="3.73896">
        <ele>987</ele>
        <time>2023-04-05T14:47:15Z</time>
      </trkpt>
      <trkpt lat="45.9217" lon="3.73895">
        <ele>985</ele>
        <time>2023-04-05T14:47:30Z</time>
      </trkpt>
      <trkpt lat="45.92199" lon="3.73884">
        <ele>986</ele>
        <time>2023-04-05T14:47:54Z</time>
      </trkpt>
      <trkpt lat="45.9222" lon="3.73881">
        <ele>986</ele>
        <time>2023-04-05T14:48:11Z</time>
      </trkpt>
      <trkpt lat="45.92244" lon="3.73901">
        <ele>982</ele>
        <time>2023-04-05T14:48:33Z</time>
      </trkpt>
      <trkpt lat="45.92273" lon="3.73935">
        <ele>978</ele>
        <time>2023-04-05T14:49:03Z</time>
      </trkpt>
      <trkpt lat="45.92299" lon="3.73952">
        <ele>977</ele>
        <time>2023-04-05T14:49:26Z</time>
      </trkpt>
      <trkpt lat="45.92327" lon="3.73961">
        <ele>978</ele>
        <time>2023-04-05T14:49:49Z</time>
      </trkpt>
      <trkpt lat="45.92344" lon="3.73973">
        <ele>977</ele>
        <time>2023-04-05T14:50:04Z</time>
      </trkpt>
      <trkpt lat="45.92368" lon="3.74001">
        <ele>973</ele>
        <time>2023-04-05T14:50:29Z</time>
      </trkpt>
      <trkpt lat="45.92429" lon="3.74093">
        <ele>974</ele>
        <time>2023-04-05T14:51:39Z</time>
      </trkpt>
      <trkpt lat="45.92465" lon="3.74138">
        <ele>975</ele>
        <time>2023-04-05T14:52:18Z</time>
      </trkpt>
      <trkpt lat="45.92469" lon="3.74149">
        <ele>975</ele>
        <time>2023-04-05T14:52:25Z</time>
      </trkpt>
      <trkpt lat="45.92471" lon="3.7419">
        <ele>971</ele>
        <time>2023-04-05T14:52:47Z</time>
      </trkpt>
      <trkpt lat="45.92455" lon="3.7427">
        <ele>960</ele>
        <time>2023-04-05T14:53:34Z</time>
      </trkpt>
      <trkpt lat="45.92456" lon="3.74309">
        <ele>959</ele>
        <time>2023-04-05T14:53:56Z</time>
      </trkpt>
      <trkpt lat="45.92451" lon="3.74335">
        <ele>957</ele>
        <time>2023-04-05T14:54:11Z</time>
      </trkpt>
      <trkpt lat="45.92407" lon="3.74405">
        <ele>955</ele>
        <time>2023-04-05T14:55:03Z</time>
      </trkpt>
      <trkpt lat="45.92409" lon="3.7443">
        <ele>956</ele>
        <time>2023-04-05T14:55:17Z</time>
      </trkpt>
      <trkpt lat="45.92411" lon="3.74426">
        <ele>957</ele>
        <time>2023-04-05T14:55:20Z</time>
      </trkpt>
      <trkpt lat="45.92409" lon="3.74432">
        <ele>956</ele>
        <time>2023-04-05T14:55:24Z</time>
      </trkpt>
      <trkpt lat="45.92411" lon="3.74427">
        <ele>957</ele>
        <time>2023-04-05T14:55:27Z</time>
      </trkpt>
      <trkpt lat="45.92406" lon="3.74424">
        <ele>956</ele>
        <time>2023-04-05T14:55:31Z</time>
      </trkpt>
      <trkpt lat="45.92408" lon="3.74439">
        <ele>957</ele>
        <time>2023-04-05T14:55:40Z</time>
      </trkpt>
      <trkpt lat="45.92408" lon="3.74435">
        <ele>956</ele>
        <time>2023-04-05T14:55:42Z</time>
      </trkpt>
      <trkpt lat="45.92431" lon="3.74484">
        <ele>961</ele>
        <time>2023-04-05T14:56:15Z</time>
      </trkpt>
      <trkpt lat="45.92462" lon="3.74511">
        <ele>964</ele>
        <time>2023-04-05T14:56:44Z</time>
      </trkpt>
      <trkpt lat="45.92528" lon="3.74532">
        <ele>969</ele>
        <time>2023-04-05T14:57:38Z</time>
      </trkpt>
      <trkpt lat="45.9256" lon="3.74563">
        <ele>969</ele>
        <time>2023-04-05T14:58:09Z</time>
      </trkpt>
      <trkpt lat="45.92616" lon="3.74592">
        <ele>970</ele>
        <time>2023-04-05T14:58:56Z</time>
      </trkpt>
      <trkpt lat="45.92633" lon="3.74605">
        <ele>971</ele>
        <time>2023-04-05T14:59:12Z</time>
      </trkpt>
      <trkpt lat="45.92737" lon="3.74648">
        <ele>971</ele>
        <time>2023-04-05T15:00:39Z</time>
      </trkpt>
      <trkpt lat="45.92764" lon="3.74664">
        <ele>970</ele>
        <time>2023-04-05T15:01:02Z</time>
      </trkpt>
      <trkpt lat="45.92815" lon="3.74701">
        <ele>966</ele>
        <time>2023-04-05T15:01:48Z</time>
      </trkpt>
      <trkpt lat="45.92856" lon="3.7476">
        <ele>962</ele>
        <time>2023-04-05T15:02:34Z</time>
      </trkpt>
      <trkpt lat="45.92888" lon="3.74793">
        <ele>960</ele>
        <time>2023-04-05T15:03:06Z</time>
      </trkpt>
      <trkpt lat="45.92948" lon="3.74814">
        <ele>960</ele>
        <time>2023-04-05T15:03:55Z</time>
      </trkpt>
      <trkpt lat="45.92985" lon="3.74832">
        <ele>959</ele>
        <time>2023-04-05T15:04:26Z</time>
      </trkpt>
      <trkpt lat="45.93014" lon="3.74839">
        <ele>958</ele>
        <time>2023-04-05T15:04:50Z</time>
      </trkpt>
      <trkpt lat="45.93032" lon="3.7485">
        <ele>957</ele>
        <time>2023-04-05T15:05:06Z</time>
      </trkpt>
      <trkpt lat="45.93078" lon="3.74867">
        <ele>955</ele>
        <time>2023-04-05T15:05:44Z</time>
      </trkpt>
      <trkpt lat="45.93123" lon="3.74894">
        <ele>957</ele>
        <time>2023-04-05T15:06:23Z</time>
      </trkpt>
      <trkpt lat="45.93222" lon="3.74904">
        <ele>963</ele>
        <time>2023-04-05T15:07:42Z</time>
      </trkpt>
      <trkpt lat="45.9331" lon="3.74884">
        <ele>962</ele>
        <time>2023-04-05T15:08:53Z</time>
      </trkpt>
      <trkpt lat="45.93364" lon="3.7486">
        <ele>961</ele>
        <time>2023-04-05T15:09:39Z</time>
      </trkpt>
      <trkpt lat="45.93462" lon="3.7484">
        <ele>963</ele>
        <time>2023-04-05T15:10:58Z</time>
      </trkpt>
      <trkpt lat="45.93496" lon="3.74818">
        <ele>966</ele>
        <time>2023-04-05T15:11:28Z</time>
      </trkpt>
      <trkpt lat="45.93533" lon="3.74804">
        <ele>969</ele>
        <time>2023-04-05T15:11:58Z</time>
      </trkpt>
      <trkpt lat="45.93585" lon="3.74765">
        <ele>973</ele>
        <time>2023-04-05T15:12:45Z</time>
      </trkpt>
      <trkpt lat="45.93616" lon="3.74759">
        <ele>972</ele>
        <time>2023-04-05T15:13:10Z</time>
      </trkpt>
      <trkpt lat="45.93692" lon="3.74724">
        <ele>970</ele>
        <time>2023-04-05T15:14:14Z</time>
      </trkpt>
      <trkpt lat="45.93709" lon="3.74711">
        <ele>971</ele>
        <time>2023-04-05T15:14:30Z</time>
      </trkpt>
      <trkpt lat="45.93714" lon="3.747">
        <ele>972</ele>
        <time>2023-04-05T15:14:37Z</time>
      </trkpt>
      <trkpt lat="45.9371" lon="3.74694">
        <ele>973</ele>
        <time>2023-04-05T15:14:42Z</time>
      </trkpt>
      <trkpt lat="45.93711" lon="3.74671">
        <ele>976</ele>
        <time>2023-04-05T15:14:55Z</time>
      </trkpt>
      <trkpt lat="45.93733" lon="3.74612">
        <ele>982</ele>
        <time>2023-04-05T15:15:32Z</time>
      </trkpt>
      <trkpt lat="45.93801" lon="3.74514">
        <ele>999</ele>
        <time>2023-04-05T15:16:49Z</time>
      </trkpt>
      <trkpt lat="45.93856" lon="3.74458">
        <ele>1010</ele>
        <time>2023-04-05T15:17:43Z</time>
      </trkpt>
      <trkpt lat="45.93895" lon="3.74381">
        <ele>1020</ele>
        <time>2023-04-05T15:18:36Z</time>
      </trkpt>
      <trkpt lat="45.93906" lon="3.74342">
        <ele>1025</ele>
        <time>2023-04-05T15:18:59Z</time>
      </trkpt>
      <trkpt lat="45.93909" lon="3.74302">
        <ele>1029</ele>
        <time>2023-04-05T15:19:22Z</time>
      </trkpt>
      <trkpt lat="45.93906" lon="3.74272">
        <ele>1031</ele>
        <time>2023-04-05T15:19:39Z</time>
      </trkpt>
      <trkpt lat="45.9391" lon="3.74152">
        <ele>1043</ele>
        <time>2023-04-05T15:20:46Z</time>
      </trkpt>
      <trkpt lat="45.93933" lon="3.74111">
        <ele>1046</ele>
        <time>2023-04-05T15:21:15Z</time>
      </trkpt>
      <trkpt lat="45.93939" lon="3.74069">
        <ele>1048</ele>
        <time>2023-04-05T15:21:39Z</time>
      </trkpt>
      <trkpt lat="45.93951" lon="3.7403">
        <ele>1050</ele>
        <time>2023-04-05T15:22:02Z</time>
      </trkpt>
      <trkpt lat="45.93964" lon="3.73933">
        <ele>1053</ele>
        <time>2023-04-05T15:22:57Z</time>
      </trkpt>
      <trkpt lat="45.93963" lon="3.7389">
        <ele>1055</ele>
        <time>2023-04-05T15:23:21Z</time>
      </trkpt>
      <trkpt lat="45.93959" lon="3.73861">
        <ele>1057</ele>
        <time>2023-04-05T15:23:38Z</time>
      </trkpt>
      <trkpt lat="45.93939" lon="3.73815">
        <ele>1061</ele>
        <time>2023-04-05T15:24:08Z</time>
      </trkpt>
      <trkpt lat="45.93901" lon="3.73751">
        <ele>1065</ele>
        <time>2023-04-05T15:24:55Z</time>
      </trkpt>
      <trkpt lat="45.93878" lon="3.73728">
        <ele>1067</ele>
        <time>2023-04-05T15:25:17Z</time>
      </trkpt>
      <trkpt lat="45.93847" lon="3.73673">
        <ele>1069</ele>
        <time>2023-04-05T15:25:57Z</time>
      </trkpt>
      <trkpt lat="45.93825" lon="3.73624">
        <ele>1070</ele>
        <time>2023-04-05T15:26:29Z</time>
      </trkpt>
      <trkpt lat="45.938" lon="3.73583">
        <ele>1072</ele>
        <time>2023-04-05T15:27:00Z</time>
      </trkpt>
      <trkpt lat="45.93773" lon="3.73506">
        <ele>1076</ele>
        <time>2023-04-05T15:27:48Z</time>
      </trkpt>
      <trkpt lat="45.9376" lon="3.73452">
        <ele>1075</ele>
        <time>2023-04-05T15:28:19Z</time>
      </trkpt>
      <trkpt lat="45.93723" lon="3.73339">
        <ele>1075</ele>
        <time>2023-04-05T15:29:29Z</time>
      </trkpt>
      <trkpt lat="45.9371" lon="3.7332">
        <ele>1076</ele>
        <time>2023-04-05T15:29:44Z</time>
      </trkpt>
      <trkpt lat="45.93662" lon="3.73193">
        <ele>1075</ele>
        <time>2023-04-05T15:31:04Z</time>
      </trkpt>
      <trkpt lat="45.93619" lon="3.73119">
        <ele>1074</ele>
        <time>2023-04-05T15:31:58Z</time>
      </trkpt>
      <trkpt lat="45.93616" lon="3.73078">
        <ele>1074</ele>
        <time>2023-04-05T15:32:21Z</time>
      </trkpt>
      <trkpt lat="45.9362" lon="3.73037">
        <ele>1077</ele>
        <time>2023-04-05T15:32:44Z</time>
      </trkpt>
      <trkpt lat="45.93614" lon="3.73029">
        <ele>1078</ele>
        <time>2023-04-05T15:32:51Z</time>
      </trkpt>
      <trkpt lat="45.93568" lon="3.73033">
        <ele>1077</ele>
        <time>2023-04-05T15:33:28Z</time>
      </trkpt>
      <trkpt lat="45.93482" lon="3.73063">
        <ele>1078</ele>
        <time>2023-04-05T15:34:38Z</time>
      </trkpt>
      <trkpt lat="45.93429" lon="3.73048">
        <ele>1077</ele>
        <time>2023-04-05T15:35:22Z</time>
      </trkpt>
      <trkpt lat="45.93409" lon="3.73051">
        <ele>1076</ele>
        <time>2023-04-05T15:35:38Z</time>
      </trkpt>
      <trkpt lat="45.9338" lon="3.73049">
        <ele>1075</ele>
        <time>2023-04-05T15:36:01Z</time>
      </trkpt>
      <trkpt lat="45.93361" lon="3.73044">
        <ele>1074</ele>
        <time>2023-04-05T15:36:16Z</time>
      </trkpt>
      <trkpt lat="45.93354" lon="3.73037">
        <ele>1074</ele>
        <time>2023-04-05T15:36:23Z</time>
      </trkpt>
      <trkpt lat="45.93328" lon="3.73041">
        <ele>1072</ele>
        <time>2023-04-05T15:36:44Z</time>
      </trkpt>
      <trkpt lat="45.93287" lon="3.73009">
        <ele>1070</ele>
        <time>2023-04-05T15:37:22Z</time>
      </trkpt>
      <trkpt lat="45.93286" lon="3.72999">
        <ele>1069</ele>
        <time>2023-04-05T15:37:27Z</time>
      </trkpt>
      <trkpt lat="45.933" lon="3.7297">
        <ele>1069</ele>
        <time>2023-04-05T15:37:47Z</time>
      </trkpt>
      <trkpt lat="45.93307" lon="3.72964">
        <ele>1070</ele>
        <time>2023-04-05T15:37:53Z</time>
      </trkpt>
      <trkpt lat="45.9331" lon="3.72917">
        <ele>1068</ele>
        <time>2023-04-05T15:38:20Z</time>
      </trkpt>
      <trkpt lat="45.93302" lon="3.72879">
        <ele>1066</ele>
        <time>2023-04-05T15:38:42Z</time>
      </trkpt>
      <trkpt lat="45.9329" lon="3.7286">
        <ele>1064</ele>
        <time>2023-04-05T15:38:56Z</time>
      </trkpt>
      <trkpt lat="45.93273" lon="3.72849">
        <ele>1062</ele>
        <time>2023-04-05T15:39:11Z</time>
      </trkpt>
      <trkpt lat="45.93283" lon="3.7285">
        <ele>1064</ele>
        <time>2023-04-05T15:39:19Z</time>
      </trkpt>
      <trkpt lat="45.93296" lon="3.72868">
        <ele>1065</ele>
        <time>2023-04-05T15:39:33Z</time>
      </trkpt>
      <trkpt lat="45.93304" lon="3.72892">
        <ele>1067</ele>
        <time>2023-04-05T15:39:48Z</time>
      </trkpt>
      <trkpt lat="45.93307" lon="3.72932">
        <ele>1068</ele>
        <time>2023-04-05T15:40:11Z</time>
      </trkpt>
      <trkpt lat="45.93315" lon="3.72956">
        <ele>1070</ele>
        <time>2023-04-05T15:40:25Z</time>
      </trkpt>
      <trkpt lat="45.93322" lon="3.72963">
        <ele>1072</ele>
        <time>2023-04-05T15:40:32Z</time>
      </trkpt>
      <trkpt lat="45.93339" lon="3.7296">
        <ele>1073</ele>
        <time>2023-04-05T15:40:46Z</time>
      </trkpt>
      <trkpt lat="45.93344" lon="3.72952">
        <ele>1073</ele>
        <time>2023-04-05T15:40:52Z</time>
      </trkpt>
      <trkpt lat="45.93382" lon="3.72975">
        <ele>1074</ele>
        <time>2023-04-05T15:41:25Z</time>
      </trkpt>
      <trkpt lat="45.93417" lon="3.72989">
        <ele>1075</ele>
        <time>2023-04-05T15:41:54Z</time>
      </trkpt>
      <trkpt lat="45.93426" lon="3.72996">
        <ele>1075</ele>
        <time>2023-04-05T15:42:02Z</time>
      </trkpt>
      <trkpt lat="45.93446" lon="3.7304">
        <ele>1077</ele>
        <time>2023-04-05T15:42:32Z</time>
      </trkpt>
      <trkpt lat="45.93463" lon="3.73043">
        <ele>1077</ele>
        <time>2023-04-05T15:42:45Z</time>
      </trkpt>
      <trkpt lat="45.9347" lon="3.7305">
        <ele>1078</ele>
        <time>2023-04-05T15:42:52Z</time>
      </trkpt>
      <trkpt lat="45.93472" lon="3.7306">
        <ele>1078</ele>
        <time>2023-04-05T15:42:58Z</time>
      </trkpt>
      <trkpt lat="45.9347" lon="3.73072">
        <ele>1078</ele>
        <time>2023-04-05T15:43:05Z</time>
      </trkpt>
      <trkpt lat="45.93458" lon="3.73093">
        <ele>1079</ele>
        <time>2023-04-05T15:43:20Z</time>
      </trkpt>
      <trkpt lat="45.93413" lon="3.73151">
        <ele>1082</ele>
        <time>2023-04-05T15:44:08Z</time>
      </trkpt>
      <trkpt lat="45.9338" lon="3.73184">
        <ele>1082</ele>
        <time>2023-04-05T15:44:40Z</time>
      </trkpt>
      <trkpt lat="45.93322" lon="3.73231">
        <ele>1083</ele>
        <time>2023-04-05T15:45:34Z</time>
      </trkpt>
      <trkpt lat="45.93315" lon="3.73241">
        <ele>1084</ele>
        <time>2023-04-05T15:45:42Z</time>
      </trkpt>
      <trkpt lat="45.93254" lon="3.73365">
        <ele>1090</ele>
        <time>2023-04-05T15:47:06Z</time>
      </trkpt>
      <trkpt lat="45.93204" lon="3.73484">
        <ele>1094</ele>
        <time>2023-04-05T15:48:24Z</time>
      </trkpt>
      <trkpt lat="45.9319" lon="3.73502">
        <ele>1095</ele>
        <time>2023-04-05T15:48:39Z</time>
      </trkpt>
      <trkpt lat="45.93172" lon="3.73481">
        <ele>1092</ele>
        <time>2023-04-05T15:48:57Z</time>
      </trkpt>
      <trkpt lat="45.93147" lon="3.73461">
        <ele>1089</ele>
        <time>2023-04-05T15:49:20Z</time>
      </trkpt>
      <trkpt lat="45.93127" lon="3.73415">
        <ele>1084</ele>
        <time>2023-04-05T15:49:50Z</time>
      </trkpt>
      <trkpt lat="45.93111" lon="3.73361">
        <ele>1074</ele>
        <time>2023-04-05T15:50:23Z</time>
      </trkpt>
      <trkpt lat="45.93109" lon="3.73319">
        <ele>1068</ele>
        <time>2023-04-05T15:50:47Z</time>
      </trkpt>
      <trkpt lat="45.93114" lon="3.73265">
        <ele>1061</ele>
        <time>2023-04-05T15:51:17Z</time>
      </trkpt>
      <trkpt lat="45.93112" lon="3.7325">
        <ele>1058</ele>
        <time>2023-04-05T15:51:25Z</time>
      </trkpt>
      <trkpt lat="45.93102" lon="3.73227">
        <ele>1054</ele>
        <time>2023-04-05T15:51:40Z</time>
      </trkpt>
      <trkpt lat="45.93087" lon="3.73213">
        <ele>1049</ele>
        <time>2023-04-05T15:51:55Z</time>
      </trkpt>
      <trkpt lat="45.93069" lon="3.73208">
        <ele>1045</ele>
        <time>2023-04-05T15:52:09Z</time>
      </trkpt>
      <trkpt lat="45.92994" lon="3.73205">
        <ele>1035</ele>
        <time>2023-04-05T15:53:10Z</time>
      </trkpt>
      <trkpt lat="45.92984" lon="3.73202">
        <ele>1035</ele>
        <time>2023-04-05T15:53:18Z</time>
      </trkpt>
      <trkpt lat="45.92967" lon="3.73188">
        <ele>1035</ele>
        <time>2023-04-05T15:53:33Z</time>
      </trkpt>
      <trkpt lat="45.92937" lon="3.73178">
        <ele>1035</ele>
        <time>2023-04-05T15:53:58Z</time>
      </trkpt>
      <trkpt lat="45.92917" lon="3.73184">
        <ele>1035</ele>
        <time>2023-04-05T15:54:14Z</time>
      </trkpt>
      <trkpt lat="45.92885" lon="3.73217">
        <ele>1043</ele>
        <time>2023-04-05T15:54:46Z</time>
      </trkpt>
      <trkpt lat="45.92867" lon="3.73249">
        <ele>1047</ele>
        <time>2023-04-05T15:55:09Z</time>
      </trkpt>
      <trkpt lat="45.92855" lon="3.73285">
        <ele>1046</ele>
        <time>2023-04-05T15:55:31Z</time>
      </trkpt>
      <trkpt lat="45.92849" lon="3.73325">
        <ele>1042</ele>
        <time>2023-04-05T15:55:54Z</time>
      </trkpt>
      <trkpt lat="45.92839" lon="3.73347">
        <ele>1041</ele>
        <time>2023-04-05T15:56:09Z</time>
      </trkpt>
      <trkpt lat="45.92781" lon="3.73424">
        <ele>1045</ele>
        <time>2023-04-05T15:57:12Z</time>
      </trkpt>
      <trkpt lat="45.92754" lon="3.73442">
        <ele>1048</ele>
        <time>2023-04-05T15:57:36Z</time>
      </trkpt>
      <trkpt lat="45.92671" lon="3.73477">
        <ele>1054</ele>
        <time>2023-04-05T15:58:45Z</time>
      </trkpt>
      <trkpt lat="45.92628" lon="3.73511">
        <ele>1049</ele>
        <time>2023-04-05T15:59:24Z</time>
      </trkpt>
      <trkpt lat="45.92598" lon="3.73517">
        <ele>1050</ele>
        <time>2023-04-05T15:59:48Z</time>
      </trkpt>
      <trkpt lat="45.9257" lon="3.73509">
        <ele>1053</ele>
        <time>2023-04-05T16:00:11Z</time>
      </trkpt>
      <trkpt lat="45.92511" lon="3.73437">
        <ele>1062</ele>
        <time>2023-04-05T16:01:13Z</time>
      </trkpt>
      <trkpt lat="45.92474" lon="3.73416">
        <ele>1064</ele>
        <time>2023-04-05T16:01:45Z</time>
      </trkpt>
      <trkpt lat="45.92465" lon="3.73416">
        <ele>1065</ele>
        <time>2023-04-05T16:01:52Z</time>
      </trkpt>
      <trkpt lat="45.92449" lon="3.73428">
        <ele>1063</ele>
        <time>2023-04-05T16:02:07Z</time>
      </trkpt>
      <trkpt lat="45.92387" lon="3.73497">
        <ele>1055</ele>
        <time>2023-04-05T16:03:10Z</time>
      </trkpt>
      <trkpt lat="45.92369" lon="3.73504">
        <ele>1054</ele>
        <time>2023-04-05T16:03:24Z</time>
      </trkpt>
      <trkpt lat="45.9236" lon="3.73502">
        <ele>1053</ele>
        <time>2023-04-05T16:03:32Z</time>
      </trkpt>
      <trkpt lat="45.92335" lon="3.73484">
        <ele>1054</ele>
        <time>2023-04-05T16:03:54Z</time>
      </trkpt>
      <trkpt lat="45.9232" lon="3.73466">
        <ele>1055</ele>
        <time>2023-04-05T16:04:10Z</time>
      </trkpt>
      <trkpt lat="45.92308" lon="3.7343">
        <ele>1057</ele>
        <time>2023-04-05T16:04:32Z</time>
      </trkpt>
      <trkpt lat="45.92289" lon="3.734">
        <ele>1059</ele>
        <time>2023-04-05T16:04:55Z</time>
      </trkpt>
      <trkpt lat="45.92265" lon="3.73377">
        <ele>1061</ele>
        <time>2023-04-05T16:05:18Z</time>
      </trkpt>
      <trkpt lat="45.92256" lon="3.73375">
        <ele>1060</ele>
        <time>2023-04-05T16:05:25Z</time>
      </trkpt>
      <trkpt lat="45.92199" lon="3.73378">
        <ele>1060</ele>
        <time>2023-04-05T16:06:11Z</time>
      </trkpt>
      <trkpt lat="45.92173" lon="3.73396">
        <ele>1058</ele>
        <time>2023-04-05T16:06:34Z</time>
      </trkpt>
      <trkpt lat="45.92157" lon="3.73377">
        <ele>1062</ele>
        <time>2023-04-05T16:06:50Z</time>
      </trkpt>
      <trkpt lat="45.92138" lon="3.73371">
        <ele>1063</ele>
        <time>2023-04-05T16:07:06Z</time>
      </trkpt>
      <trkpt lat="45.92079" lon="3.73367">
        <ele>1066</ele>
        <time>2023-04-05T16:07:53Z</time>
      </trkpt>
      <trkpt lat="45.92051" lon="3.7336">
        <ele>1070</ele>
        <time>2023-04-05T16:08:16Z</time>
      </trkpt>
      <trkpt lat="45.92004" lon="3.73359">
        <ele>1074</ele>
        <time>2023-04-05T16:08:54Z</time>
      </trkpt>
      <trkpt lat="45.91983" lon="3.73363">
        <ele>1075</ele>
        <time>2023-04-05T16:09:11Z</time>
      </trkpt>
      <trkpt lat="45.91929" lon="3.73391">
        <ele>1076</ele>
        <time>2023-04-05T16:09:57Z</time>
      </trkpt>
      <trkpt lat="45.91909" lon="3.73395">
        <ele>1076</ele>
        <time>2023-04-05T16:10:13Z</time>
      </trkpt>
      <trkpt lat="45.91854" lon="3.73378">
        <ele>1076</ele>
        <time>2023-04-05T16:10:58Z</time>
      </trkpt>
      <trkpt lat="45.91837" lon="3.73364">
        <ele>1077</ele>
        <time>2023-04-05T16:11:13Z</time>
      </trkpt>
      <trkpt lat="45.91816" lon="3.73336">
        <ele>1079</ele>
        <time>2023-04-05T16:11:36Z</time>
      </trkpt>
      <trkpt lat="45.91793" lon="3.73277">
        <ele>1081</ele>
        <time>2023-04-05T16:12:14Z</time>
      </trkpt>
      <trkpt lat="45.91743" lon="3.73172">
        <ele>1077</ele>
        <time>2023-04-05T16:13:25Z</time>
      </trkpt>
      <trkpt lat="45.91732" lon="3.73134">
        <ele>1077</ele>
        <time>2023-04-05T16:13:48Z</time>
      </trkpt>
      <trkpt lat="45.91726" lon="3.73124">
        <ele>1077</ele>
        <time>2023-04-05T16:13:55Z</time>
      </trkpt>
      <trkpt lat="45.91718" lon="3.73126">
        <ele>1077</ele>
        <time>2023-04-05T16:14:02Z</time>
      </trkpt>
      <trkpt lat="45.91723" lon="3.73086">
        <ele>1077</ele>
        <time>2023-04-05T16:14:24Z</time>
      </trkpt>
      <trkpt lat="45.91713" lon="3.73065">
        <ele>1080</ele>
        <time>2023-04-05T16:14:39Z</time>
      </trkpt>
      <trkpt lat="45.91705" lon="3.73058">
        <ele>1081</ele>
        <time>2023-04-05T16:14:46Z</time>
      </trkpt>
      <trkpt lat="45.91687" lon="3.73053">
        <ele>1083</ele>
        <time>2023-04-05T16:15:01Z</time>
      </trkpt>
      <trkpt lat="45.9165" lon="3.73066">
        <ele>1083</ele>
        <time>2023-04-05T16:15:31Z</time>
      </trkpt>
      <trkpt lat="45.91621" lon="3.73068">
        <ele>1085</ele>
        <time>2023-04-05T16:15:54Z</time>
      </trkpt>
      <trkpt lat="45.91602" lon="3.73065">
        <ele>1088</ele>
        <time>2023-04-05T16:16:10Z</time>
      </trkpt>
      <trkpt lat="45.91499" lon="3.73021">
        <ele>1098</ele>
        <time>2023-04-05T16:17:36Z</time>
      </trkpt>
      <trkpt lat="45.91474" lon="3.73">
        <ele>1100</ele>
        <time>2023-04-05T16:17:59Z</time>
      </trkpt>
      <trkpt lat="45.91451" lon="3.72956">
        <ele>1102</ele>
        <time>2023-04-05T16:18:30Z</time>
      </trkpt>
      <trkpt lat="45.9143" lon="3.7293">
        <ele>1102</ele>
        <time>2023-04-05T16:18:52Z</time>
      </trkpt>
      <trkpt lat="45.91435" lon="3.72889">
        <ele>1103</ele>
        <time>2023-04-05T16:19:15Z</time>
      </trkpt>
      <trkpt lat="45.91428" lon="3.72888">
        <ele>1102</ele>
        <time>2023-04-05T16:19:21Z</time>
      </trkpt>
      <trkpt lat="45.91437" lon="3.72889">
        <ele>1103</ele>
        <time>2023-04-05T16:19:28Z</time>
      </trkpt>
      <trkpt lat="45.91436" lon="3.72896">
        <ele>1103</ele>
        <time>2023-04-05T16:19:32Z</time>
      </trkpt>
      <trkpt lat="45.91423" lon="3.72892">
        <ele>1102</ele>
        <time>2023-04-05T16:19:42Z</time>
        <extensions>
          <visugpx:TrkExtension xmlns:visugpx="https://www.visugpx.com/editgpx/">
            <visugpx:node>3</visugpx:node>
            </visugpx:TrkExtension>
        </extensions>
      </trkpt>
    </trkseg>
  </trk>
</gpx>